Meath Environmental Platform

Observations for Trim Market St

Time AQI Temp °C Hum % Pres Pa CO μg/m³ H₂S μg/m³ NO μg/m³ NO₂ μg/m³ O₃ μg/m³ SO₂ μg/m³ PM1 μg/m³ PM2.5 μg/m³ PM10 μg/m³
Monday 24 August 2026
18:23 4 24.6 37 65,736 0 17.39 0.57 47.06 106.4 0 4.28 7.8 9.17
18:20 4 24.8 37 65,748 0 19.32 0.53 50.21 108.52 0 2.14 7.3 10
18:14 4 25.2 36 65,799 0 18.04 0.69 48.3 104.03 0 2.85 6.29 9.19
18:10 4 25.5 35 65,825 0 18.31 0.64 43.83 103.44 0 4.28 10.08 13.38
18:09 4 25.6 34 65,835 0 19.53 0.59 45.94 110.74 0 2.14 5.8 6.69
18:08 4 25.7 34 65,809 0 19.9 0.61 56.03 83.11 0 2.14 6.34 7.53
18:07 4 25.8 34 65,811 0 18.36 0.55 43.42 100.99 0 2.85 6.89 8.36
18:06 4 25.9 34 65,839 0 17.85 0.58 45.07 98.23 0 2.85 6.36 6.69
18:05 4 26 34 65,853 0 18.43 0.5 48.36 92.58 0 3.56 8.51 10.89
18:04 4 26.1 34 65,831 0 16.62 0.51 34.74 106.75 0 3.56 6.37 7.53
18:03 4 26.2 34 65,831 0 17.71 0.46 33.29 119.07 0 2.14 6.37 6.68
18:02 4 26.3 34 65,839 0 18.56 0.46 35.48 99.56 0 2.85 7.99 9.21
18:01 4 26.4 34 65,843 0 19.84 0.37 36.96 123.63 0 2.85 6.92 8.37
18:00 4 26.5 34 65,847 0 22.98 0.38 47.73 101.89 0 2.85 6.38 7.53
17:59 4 26.6 33 65,851 0 23.41 0.47 48.12 114.89 0 2.85 7.47 8.37
17:58 4 26.7 33 65,857 0 23.3 0.5 51.82 117.15 0 2.14 6.95 9.22
17:57 4 26.8 33 65,864 0 23.4 0.53 60.06 91.36 0 2.14 6.96 7.52
17:54 4 27.1 32 65,914 0 23.83 0.42 47.65 131.59 0 2.85 7 8.38
17:53 4 27.2 32 65,937 0 25.67 0.38 51.72 116.37 0 3.56 8.63 10.08
17:52 4 27.3 32 65,970 0 28.79 0.33 50.91 110 0 2.14 7.03 8.38